Weather in Studenyky

Ukraine / Kyiv Region     50°12′18″N   31°36′57″E
temp.,
°C
wind,
m/s
gust,
m/s
humid.,
%
clouds,
%
prec.,
mm/h
press.,
hPa
HPBL,
m
7 march, sun
sun723:00−7wnw23790 0.0 102621
02:00−7wsw45820 0.0 102583
05:00−6sw511860 0.0 1022217
08:00−4sw7148411 0.0 1019454
11:000wsw81478100 0.0 10171115
14:00+1wsw7148396 0.0 10141211
17:00+1wsw6148196 0.0 10121032
20:000w6158198 0.0 1012795
8 march, mon
mon823:00−1wsw6148382 0.0 1011544
02:00−1w6148588 0.0 1010575
05:00−1w61289100 0.1 1009704
08:00−1wnw51094100 0.3 1010749
11:00−1wnw587664 0.1 10111200
14:000wnw477544 0.1 10111412
17:00−2w487582 0.1 1012190
20:00−4wnw5137582 0.2 1014396
9 march, tue
tue923:00−5nw49850 0.0 1015168
02:00−6nw368611 0.0 1016121
05:00−7nw36897 0.0 1018115
08:00−6n379445 0.0 1020430
11:00−5n468253 0.0 1021696
14:00−4n357949 0.0 1022703
17:00−6ne228781 0.0 102333
20:00−8e128589 0.0 102522
10 march, wed
wed1023:00−9se128491 0.0 102522
02:00−10ese128564 0.0 102621
05:00−10ese228557 0.0 102622
08:00−9se248776 0.0 1026123
11:00−6se338384 0.0 1026272
14:00−4ese238076 0.0 1025411
17:00−6ese23860 0.0 102529
20:00−9e22830 0.0 102622
11 march, thu
thu1123:00−9ese22810 0.0 102622
02:00−10ese22780 0.0 102621
05:00−10ese12750 0.0 102621
08:00−9se22800 0.0 102739
11:00−4sse23750 0.0 1026257
14:00−2sse46710 0.0 1025741
17:00−4se45790 0.0 102589
20:00−5sse457619 0.0 102583